Weather History for Mount Holly, NJ

Change the Weather History Date:

Saturday, September 14, 2013

  Actual Average (KWRI) Record (KWRI)
Temperature  
Mean Temperature 57 °F -  
Max Temperature 66 °F 77 °F 92 °F (2008)
Min Temperature 48 °F 56 °F 50 °F (2001)
Degree Days  
Heating Degree Days 8    
Growing Degree Days 7 (Base 50)    
Moisture  
Dew Point 46 °F    
Average Humidity 68    
Maximum Humidity 93    
Minimum Humidity 48    
Precipitation  
Precipitation 0.00 in - - ()
Sea Level Pressure  
Sea Level Pressure 30.03 in    
Wind  
Wind Speed 5 mph (NNW)    
Max Wind Speed 16 mph    
Max Gust Speed 23 mph    
Visibility 10 miles    
Events      
Averages and records for this station are not official NWS values.
T = Trace of Precipitation, MM = Missing Value Source: NWS Daily Summary

Daily Weather History Graph

Daily Weather History Graph

Search for Another Location

Airport:

Trip Planner

Search our weather history database for the weather conditions in past years. The results will help you decide how hot, cold, wet, or windy it might be!

Date:

Astronomy

Sep. 14, 2013 Rise Set
Actual Time 6:39 AM EDT 7:09 PM EDT
Civil Twilight 6:12 AM EDT 7:36 PM EDT
Nautical Twilight 5:40 AM EDT 8:08 PM EDT
Astronomical Twilight 5:07 AM EDT 8:41 PM EDT
Moon 3:48 PM EDT (9/14) 1:08 AM EDT (9/14)
Length of Visible Light 13h 24m
Length of Day
12h 29m
Waxing Gibbous, 72% of the Moon is Illuminated
Sep 14
Waxing Gibbous
Sep 19
Full
Sep 26
Last Quarter
Oct 4
New
Oct 11
First Quarter

Hourly Weather History & Observations

Time (EDT) Temp. Dew Point Humidity Pressure Visibility Wind Dir Wind Speed Gust Speed Precip Events Conditions
12:54 AM 57.9 °F 50.0 °F 75% 29.90 in 10.0 mi NNW 5.8 mph - N/A   Clear
1:54 AM 55.9 °F 48.0 °F 75% 29.91 in 10.0 mi NNW 6.9 mph - N/A   Clear
2:54 AM 55.9 °F 46.9 °F 72% 29.92 in 10.0 mi Variable 3.5 mph - N/A   Clear
3:54 AM 54.0 °F 46.9 °F 77% 29.92 in 10.0 mi Variable 3.5 mph - N/A   Clear
4:54 AM 50.0 °F 46.0 °F 86% 29.94 in 10.0 mi Calm Calm - N/A   Clear
5:54 AM 53.1 °F 46.0 °F 77% 29.95 in 10.0 mi Calm Calm - N/A   Clear
6:54 AM 48.9 °F 46.0 °F 90% 29.97 in 10.0 mi Calm Calm - N/A   Clear
7:54 AM 54.0 °F 46.9 °F 77% 29.99 in 10.0 mi Calm Calm - N/A   Clear
8:54 AM 57.0 °F 45.0 °F 64% 30.00 in 10.0 mi NNW 16.1 mph 23.0 mph N/A   Clear
9:54 AM 60.1 °F 44.1 °F 55% 30.02 in 10.0 mi North 10.4 mph - N/A   Clear
10:54 AM 61.0 °F 45.0 °F 56% 30.03 in 10.0 mi NNW 9.2 mph - N/A   Scattered Clouds
11:54 AM 64.0 °F 46.0 °F 52% 30.02 in 10.0 mi North 11.5 mph 16.1 mph N/A   Scattered Clouds
12:54 PM 64.0 °F 46.0 °F 52% 30.03 in 10.0 mi Variable 3.5 mph - N/A   Mostly Cloudy
1:54 PM 66.0 °F 46.0 °F 48% 30.04 in 10.0 mi WNW 10.4 mph 19.6 mph N/A   Mostly Cloudy
2:54 PM 64.9 °F 46.0 °F 50% 30.03 in 10.0 mi Variable 4.6 mph 19.6 mph N/A   Overcast
3:54 PM 64.0 °F 46.0 °F 52% 30.04 in 10.0 mi West 9.2 mph - N/A   Overcast
4:54 PM 63.0 °F 46.0 °F 54% 30.06 in 10.0 mi North 8.1 mph - N/A   Overcast
5:54 PM 63.0 °F 46.0 °F 54% 30.08 in 10.0 mi NNW 8.1 mph - N/A   Partly Cloudy
6:54 PM 60.1 °F 46.0 °F 60% 30.09 in 10.0 mi NNW 5.8 mph - N/A   Clear
7:54 PM 55.0 °F 46.0 °F 72% 30.11 in 10.0 mi NNW 3.5 mph - N/A   Clear
8:54 PM 54.0 °F 46.0 °F 75% 30.14 in 10.0 mi NNW 3.5 mph - N/A   Clear
9:54 PM 53.1 °F 46.0 °F 77% 30.15 in 10.0 mi NNW 3.5 mph - N/A   Clear
10:54 PM 50.0 °F 45.0 °F 83% 30.16 in 10.0 mi Calm Calm - N/A   Clear
11:54 PM 48.0 °F 46.0 °F 93% 30.16 in 10.0 mi Calm Calm - N/A   Clear